Погода в Минине

Россия / Красноярский край     56°04′34″N   92°41′49″E
темп.,
°C
ветер,
м/с
пор.,
м/с
влажн.,
%
обл.,
%
осадки,
мм/ч
давл.,
гПа
погр.,
м
16 мая, пн
пн1601:00+16зюз3543100 0.0 100988
04:00+16з3763100 0.0 1010175
07:00+17зюз41064100 0.0 1011899
10:00+19з5760100 0.2 10111123
13:00+22зсз584395 1.2 10112416
16:00+19зсз385183 0.1 1011412
19:00+20зсз2545100 0.1 1011431
22:00+17юз225485 0.0 101219
17 мая, вт
вт1701:00+14юз226453 0.0 101324
04:00+13юз226934 0.0 101246
07:00+15юз246425 0.0 1012183
10:00+22юз46399 0.0 10111332
13:00+25з452815 0.0 10102668
16:00+25зсз352887 0.0 10092844
19:00+23ю244096 0.0 1008119
22:00+19ю224712 0.0 100930
18 мая, ср
ср1801:00+15ююз335831 0.0 101040
04:00+14ююз34655 0.0 101055
07:00+17ююз31056100 0.0 1010250
10:00+24юз6103462 0.0 10091155
13:00+26зюз6929100 0.0 10082852
16:00+21ююз4753100 2.3 1010800
19:00+17св127738 4.4 101178
22:00+15ююз228389 0.0 101312
19 мая, чт
чт1901:00+13ююз22877 0.0 101414
04:00+12ююз118664 0.0 101411
07:00+15вюв1173100 0.0 101493
10:00+20вюв3446100 0.0 1012810
13:00+24вюв3438100 0.0 10101664
16:00+27всв1333100 0.0 10071758
19:00+25в2241100 0.0 100556
22:00+19зсз5861100 0.1 1007229
20 мая, пт
пт2001:00+16юз41179100 1.3 1009463
04:00+15зюз51270100 0.2 1012534
07:00+15зюз511490 0.2 10151182
10:00+19з7103281 0.0 10152038
13:00+22зюз692771 0.0 10142463
16:00+23юз692594 0.0 10122648
19:00+21зюз49368 0.0 1011767
22:00+16зюз364698 0.0 1012145